Location: Summit Observatory
(39.5293°N, 75.7290°W)
Time: 14:23:26
(UTC-04:00)

Amateur Radio Satellites - All Passes

Search period start: 21 October 2014 13:53
Search period end: 22 October 2014 13:53
Location: Summit Observatory, 39.5293°N, 75.7290°W

Satellite Date Start Highest point End Downlink Frequencies (MHz)
Time Altitude Azimuth
Uribyol 2 21 Oct 13:56:41 14:01:39 47° 71° (ENE) 14:06:38 436.500 FM
Gurwin Techsat 1B 21 Oct 13:59:54 14:04:07 25° 66° (ENE) 14:08:22 435.225 FM
ISS 21 Oct 14:01:32 14:04:43 45° 137° (SE) 14:07:56 145.800 FM
ITAMSAT 1 21 Oct 14:01:41 14:06:40 49° 71° (ENE) 14:11:41 435.822 SSB
AO-Echo 21 Oct 14:10:04 14:14:51 72° 75° (ENE) 14:19:50 ?
TMSAT-1 21 Oct 14:13:41 14:17:53 25° 66° (ENE) 14:22:06 436.925 FM
SO-50 21 Oct 14:28:35 14:33:03 68° 304° (WNW) 14:37:40 436.795 FM
Sapphire 21 Oct 14:32:44 14:38:12 83° 243° (WSW) 14:43:37 437.095 MHz 1200 baud AX-25 AFSK
UOSAT-12 21 Oct 14:35:36 14:37:41 13° 107° (ESE) 14:39:47 437.025 FM, 437.400 FM
Oscar 19 21 Oct 14:38:50 14:43:22 31° 264° (W) 14:47:54 437.125 CW, 437.150 USB
AO-7 21 Oct 14:40:50 14:46:41 22° 53° (NE) 14:52:32 29.400 - 29.500 MHz
AO-27 21 Oct 14:46:07 14:51:15 63° 258° (WSW) 14:56:28 436.795 MHz FM
PCSat 21 Oct 14:55:56 15:01:08 48° 248° (WSW) 15:06:18 145.825 MHz
JAS-1B 21 Oct 15:04:36 15:09:52 29° 263° (W) 15:14:47 435.800 - 435.900 CW/SSB
Oscar 16 21 Oct 15:27:54 15:28:58 11° 271° (W) 15:30:02 437.025 USB, Beacon 2401.1428
Uribyol 2 21 Oct 15:37:31 15:41:19 20° 267° (W) 15:45:10 436.500 FM
ISS 21 Oct 15:38:44 15:41:33 24° 334° (NNW) 15:44:22 145.800 FM
Gurwin Techsat 1B 21 Oct 15:38:52 15:43:50 41° 262° (W) 15:48:51 435.225 FM
Oscar 10/S400 21 Oct 15:41:25 15:59:16 53° 161° (SSE) 16:37:51 145.825 - 145.975 CW/USB, Beacon 145.810 USB
ITAMSAT 1 21 Oct 15:42:43 15:46:24 19° 267° (W) 15:50:07 435.822 SSB
KITSAT 1 21 Oct 15:46:04 15:51:42 20° 325° (NW) 15:57:21 435.175 FM
Uosat F 21 Oct 15:52:12 15:56:32 30° 68° (ENE) 16:00:53 435.120 FM
TMSAT-1 21 Oct 15:52:34 15:57:33 41° 262° (W) 16:02:33 436.925 FM
AO-Echo 21 Oct 15:52:43 15:54:12 11° 271° (W) 15:55:41 ?
UOSAT-12 21 Oct 16:12:37 16:17:13 68° 304° (WNW) 16:21:55 437.025 FM, 437.400 FM
SO-50 21 Oct 16:13:18 16:14:31 11° 324° (NW) 16:15:45 436.795 FM
AO-40 21 Oct 16:29:09 23:17:02 42° 185° (S) 05:01:53 Beacon 2401.320
AO-7 21 Oct 16:30:11 16:38:28 85° 252° (WSW) 16:46:49 29.400 - 29.500 MHz
Saudisat 1A 21 Oct 16:31:30 16:34:35 18° 44° (NE) 16:37:39 436.775 MHz
JAS-2 21 Oct 17:16:32 17:21:59 46° 68° (ENE) 17:28:09 435.800 - 435.900 CW/SSB, 435.910 FM
ISS 21 Oct 17:18:12 17:19:11 11° 354° (N) 17:20:10 145.800 FM
OPAL 21 Oct 17:21:53 17:25:27 20° 95° (E) 17:28:58 ?
Uosat F 21 Oct 17:30:53 17:35:14 30° 263° (W) 17:39:38 435.120 FM
Hamsat 21 Oct 17:53:06 17:57:16 62° 75° (ENE) 18:01:26 145.90 MHz
UOSAT-12 21 Oct 17:56:48 17:58:16 11° 323° (NW) 17:59:44 437.025 FM, 437.400 FM
Saudisat 1A 21 Oct 18:10:09 18:14:29 55° 242° (WSW) 18:18:47 436.775 MHz
AO-7 21 Oct 18:27:47 18:32:18 16° 270° (W) 18:36:51 29.400 - 29.500 MHz
SO-67 21 Oct 18:31:41 18:33:57 17° 69° (ENE) 18:36:14 435.3500 MHz FM
ISS 21 Oct 18:55:15 18:57:03 14° 15° (NNE) 18:58:52 145.800 FM
OPAL 21 Oct 18:59:48 19:04:32 45° 291° (WNW) 19:09:13 ?
STRAND 1 21 Oct 19:00:00 19:03:58 22° 94° (E) 19:07:55 ?
JAS-2 21 Oct 19:02:46 19:07:23 25° 269° (W) 19:12:28 435.800 - 435.900 CW/SSB, 435.910 FM
HO-68 21 Oct 19:20:22 19:24:14 16° 54° (NE) 19:28:05 435.675 MHz FM
Hamsat 21 Oct 19:33:15 19:33:35 10° 270° (W) 19:33:56 145.90 MHz
KITSAT 1 21 Oct 19:47:05 19:51:11 14° 27° (NNE) 19:55:16 435.175 FM
SO-67 21 Oct 20:03:54 20:06:45 24° 264° (W) 20:09:37 435.3500 MHz FM
ISS 21 Oct 20:31:08 20:34:24 48° 34° (NNE) 20:37:38 145.800 FM
STRAND 1 21 Oct 20:38:28 20:43:18 42° 290° (WNW) 20:48:07 ?
UKube-1 21 Oct 20:48:11 20:50:56 17° 65° (ENE) 20:53:41 145.840 MHz, 145.915 MHz
HO-68 21 Oct 21:03:40 21:10:49 80° 72° (ENE) 21:18:01 435.675 MHz FM
RS-15 21 Oct 21:18:12 21:25:25 20° 100° (E) 21:32:32 29.354 - 29.394 USB, Beacon 29.352 USB
FUNcube-1 21 Oct 21:21:56 21:24:29 15° 65° (ENE) 21:27:02 145.950 - 145.970 MHz USB
SO-50 21 Oct 21:22:00 21:24:26 14° 39° (NE) 21:26:53 436.795 FM
Oscar 11 21 Oct 21:31:23 21:35:27 40° 72° (ENE) 21:39:30 145.825 FM, Beacon 2401.500 USB
KITSAT 1 21 Oct 21:41:06 21:48:53 48° 52° (NE) 21:56:36 435.175 FM
ISS 21 Oct 22:08:31 22:10:50 18° 229° (SW) 22:13:08 145.800 FM
ZACube-1 21 Oct 22:10:22 22:14:47 47° 73° (ENE) 22:19:10 437.345 MHz
UKube-1 21 Oct 22:22:36 22:26:45 44° 261° (W) 22:30:56 145.840 MHz, 145.915 MHz
HO-68 21 Oct 22:54:46 22:59:13 17° 269° (W) 23:03:43 435.675 MHz FM
FUNcube-1 21 Oct 22:55:53 23:00:24 55° 260° (W) 23:04:54 145.950 - 145.970 MHz USB
SO-50 21 Oct 23:00:52 23:05:44 83° 58° (ENE) 23:10:37 436.795 FM
UOSAT-12 21 Oct 23:04:47 23:06:55 13° 39° (NE) 23:09:03 437.025 FM, 437.400 FM
Oscar 11 21 Oct 23:09:01 23:11:47 17° 267° (W) 23:14:33 145.825 FM, Beacon 2401.500 USB
RS-15 21 Oct 23:25:06 23:36:09 89° 120° (ESE) 23:47:08 29.354 - 29.394 USB, Beacon 29.352 USB
MaSat-1 21 Oct 23:34:59 23:36:36 12° 104° (ESE) 23:38:10 437.345 MHz
KITSAT 1 21 Oct 23:36:48 23:44:05 39° 251° (WSW) 23:51:21 435.175 FM
ZACube-1 21 Oct 23:48:33 23:51:23 16° 268° (W) 23:54:13 437.345 MHz
UOSAT-12 22 Oct 00:43:07 00:47:51 80° 58° (ENE) 00:52:29 437.025 FM, 437.400 FM
SO-50 22 Oct 00:44:15 00:45:37 11° 254° (WSW) 00:46:59 436.795 FM
MaSat-1 22 Oct 01:07:48 01:12:00 56° 297° (WNW) 01:15:50 437.345 MHz
Oscar 19 22 Oct 01:14:45 01:15:46 11° 89° (E) 01:16:47 437.125 CW, 437.150 USB
RS-15 22 Oct 01:40:49 01:50:03 30° 326° (NW) 01:59:23 29.354 - 29.394 USB, Beacon 29.352 USB
Oscar 16 22 Oct 01:56:57 02:01:28 31° 96° (E) 02:05:58 437.025 USB, Beacon 2401.1428
Uribyol 2 22 Oct 02:11:26 02:14:53 18° 92° (E) 02:18:19 436.500 FM
ITAMSAT 1 22 Oct 02:16:29 02:20:06 19° 93° (E) 02:23:41 435.822 SSB
AO-Echo 22 Oct 02:18:27 02:22:55 27° 95° (E) 02:27:21 ?
UOSAT-12 22 Oct 02:26:18 02:27:17 11° 254° (WSW) 02:28:15 437.025 FM, 437.400 FM
JAS-1B 22 Oct 02:46:15 02:52:48 71° 103° (ESE) 03:00:38 435.800 - 435.900 CW/SSB
Oscar 19 22 Oct 02:50:33 02:55:41 81° 285° (WNW) 03:00:48 437.125 CW, 437.150 USB
AO-27 22 Oct 03:00:07 03:05:13 50° 100° (E) 03:10:16 436.795 MHz FM
Sapphire 22 Oct 03:33:21 03:36:04 14° 103° (ESE) 03:38:47 437.095 MHz 1200 baud AX-25 AFSK
Oscar 16 22 Oct 03:36:19 03:40:44 30° 292° (WNW) 03:45:08 437.025 USB, Beacon 2401.1428
Uribyol 2 22 Oct 03:49:35 03:54:40 53° 288° (WNW) 03:59:41 436.500 FM
PCSat 22 Oct 03:54:23 03:58:42 25° 107° (ESE) 04:03:02 145.825 MHz
ITAMSAT 1 22 Oct 03:54:48 03:59:51 51° 289° (WNW) 04:04:52 435.822 SSB
Gurwin Techsat 1B 22 Oct 03:55:34 04:00:55 86° 104° (ESE) 04:06:13 435.225 FM
AO-Echo 22 Oct 03:56:51 04:01:42 37° 291° (WNW) 04:06:32 ?
RS-15 22 Oct 04:00:50 04:07:36 18° 1° (N) 04:14:28 29.354 - 29.394 USB, Beacon 29.352 USB
TMSAT-1 22 Oct 04:08:55 04:14:15 85° 104° (ESE) 04:19:33 436.925 FM
AO-7 22 Oct 04:33:15 04:40:39 34° 98° (E) 04:48:00 29.400 - 29.500 MHz
OPAL 22 Oct 04:35:26 04:40:02 34° 67° (ENE) 04:44:37 ?
JAS-1B 22 Oct 04:38:28 04:43:01 21° 297° (WNW) 04:48:05 435.800 - 435.900 CW/SSB
AO-27 22 Oct 04:40:35 04:44:19 20° 296° (WNW) 04:48:03 436.795 MHz FM
Sapphire 22 Oct 05:13:24 05:18:47 73° 299° (WNW) 05:24:14 437.095 MHz 1200 baud AX-25 AFSK
PCSat 22 Oct 05:36:41 05:41:50 44° 304° (NW) 05:47:01 145.825 MHz
Gurwin Techsat 1B 22 Oct 05:38:00 05:40:06 12° 301° (WNW) 05:42:12 435.225 FM
Uosat F 22 Oct 05:38:37 05:43:42 89° 102° (ESE) 05:48:45 435.120 FM
Hamsat 22 Oct 05:41:51 05:43:13 11° 91° (E) 05:44:35 145.90 MHz
TMSAT-1 22 Oct 05:51:15 05:53:24 13° 300° (WNW) 05:55:34 436.925 FM
JAS-2 22 Oct 06:10:10 06:17:43 53° 99° (E) 06:25:18 435.800 - 435.900 CW/SSB, 435.910 FM
OPAL 22 Oct 06:14:29 06:18:54 28° 262° (W) 06:23:18 ?
STRAND 1 22 Oct 06:15:00 06:19:24 30° 67° (ENE) 06:23:49 ?
RS-15 22 Oct 06:15:23 06:25:01 32° 36° (NE) 06:34:55 29.354 - 29.394 USB, Beacon 29.352 USB
AO-7 22 Oct 06:25:39 06:33:37 52° 295° (WNW) 06:41:34 29.400 - 29.500 MHz
Sapphire 22 Oct 07:00:46 07:03:11 13° 319° (NW) 07:05:37 437.095 MHz 1200 baud AX-25 AFSK
Hamsat 22 Oct 07:15:23 07:19:29 54° 286° (WNW) 07:23:35 145.90 MHz
Uosat F 22 Oct 07:20:19 07:21:43 11° 301° (WNW) 07:23:07 435.120 FM
SO-67 22 Oct 07:27:53 07:30:35 21° 95° (E) 07:33:17 435.3500 MHz FM
STRAND 1 22 Oct 07:53:57 07:58:29 32° 263° (W) 08:03:03 ?
JAS-2 22 Oct 07:55:40 08:02:22 34° 295° (WNW) 08:09:12 435.800 - 435.900 CW/SSB, 435.910 FM
Saudisat 1A 22 Oct 08:15:29 08:19:40 46° 117° (ESE) 08:23:53 436.775 MHz
AO-7 22 Oct 08:22:28 08:24:29 11° 316° (NW) 08:26:30 29.400 - 29.500 MHz
RS-15 22 Oct 08:27:34 08:38:48 85° 241° (WSW) 08:50:31 29.354 - 29.394 USB, Beacon 29.352 USB
HO-68 22 Oct 08:34:48 08:38:34 15° 90° (E) 08:42:18 435.675 MHz FM
SO-67 22 Oct 09:00:56 09:03:26 19° 290° (WNW) 09:05:57 435.3500 MHz FM
PANSAT 22 Oct 09:04:49 09:05:57 11° 167° (SSE) 09:07:06 not established
Saudisat 1A 22 Oct 09:56:09 09:59:27 20° 314° (NW) 10:02:47 436.775 MHz
UKube-1 22 Oct 10:11:43 10:15:38 32° 97° (E) 10:19:32 145.840 MHz, 145.915 MHz
HO-68 22 Oct 10:19:52 10:27:07 90° 106° (ESE) 10:34:18 435.675 MHz FM
RS-15 22 Oct 10:42:19 10:49:33 20° 260° (W) 10:57:00 29.354 - 29.394 USB, Beacon 29.352 USB
PANSAT 22 Oct 10:43:03 10:45:24 16° 179° (S) 10:47:45 not established
FUNcube-1 22 Oct 10:46:27 10:50:10 29° 96° (E) 10:53:49 145.950 - 145.970 MHz USB
Oscar 11 22 Oct 10:55:36 10:59:55 85° 283° (WNW) 11:04:13 145.825 FM, Beacon 2401.500 USB
MaSat-1 22 Oct 10:56:00 10:58:04 21° 252° (WSW) 11:00:00 437.345 MHz
ZACube-1 22 Oct 11:36:51 11:41:08 71° 285° (WNW) 11:45:18 437.345 MHz
UKube-1 22 Oct 11:48:16 11:51:38 22° 293° (WNW) 11:54:59 145.840 MHz, 145.915 MHz
KITSAT 1 22 Oct 12:08:49 12:15:56 36° 108° (ESE) 12:23:04 435.175 FM
HO-68 22 Oct 12:09:23 12:13:51 18° 305° (NW) 12:18:18 435.675 MHz FM
Sapphire 22 Oct 12:20:55 12:23:21 13° 41° (NE) 12:25:46 437.095 MHz 1200 baud AX-25 AFSK
FUNcube-1 22 Oct 12:23:05 12:26:24 22° 292° (WNW) 12:29:39 145.950 - 145.970 MHz USB
PANSAT 22 Oct 12:23:26 12:24:51 12° 192° (SSW) 12:26:16 not established
Oscar 19 22 Oct 12:29:45 12:32:51 16° 62° (ENE) 12:35:58 437.125 CW, 437.150 USB
PCSat 22 Oct 12:42:48 12:46:42 20° 46° (NE) 12:50:35 145.825 MHz
Oscar 16 22 Oct 13:12:56 13:17:46 42° 70° (ENE) 13:22:36 437.025 USB, Beacon 2401.1428
ISS 22 Oct 13:13:02 13:15:48 24° 133° (SE) 13:18:34 145.800 FM
SO-50 22 Oct 13:15:24 13:19:21 32° 114° (ESE) 13:23:25 436.795 FM
Uribyol 2 22 Oct 13:28:15 13:32:28 26° 66° (ENE) 13:36:43 436.500 FM
AO-Echo 22 Oct 13:30:46 13:34:56 29° 68° (ENE) 13:39:14 ?
JAS-1B 22 Oct 13:32:09 13:38:02 52° 71° (ENE) 13:43:32 435.800 - 435.900 CW/SSB
ITAMSAT 1 22 Oct 13:33:28 13:37:46 27° 66° (ENE) 13:42:05 435.822 SSB
Gurwin Techsat 1B 22 Oct 13:38:37 13:41:44 16° 62° (ENE) 13:44:51 435.225 FM
